This is the latest recevied weather packets stored in our database for station/object YO4CIL-MG. If no packets are shown the sender has not sent any weather packets the latest 10 day(s).
| Time | Temp. | Humidity | Pressure | Rain* | Wind** | Luminosity | Snow |
|---|---|---|---|---|---|---|---|
| 1777788322 | 10° C | 71% | 1021.3 hPa | - | - | - | - |
| 1777787722 | 10.56° C | 71% | 1021.2 hPa | - | - | - | - |
| 1777787122 | 10.56° C | 61% | 1021.2 hPa | - | - | - | - |
| 1777786522 | 10.56° C | 71% | 1021.3 hPa | - | - | - | - |
| 1777785922 | 9.44° C | 73% | 1021.2 hPa | - | - | - | - |
| 1777785322 | 8.33° C | 76% | 1021.3 hPa | - | - | - | - |
| 1777784722 | 7.78° C | 76% | 1021.3 hPa | - | - | - | - |
| 1777784122 | 7.22° C | 76% | 1021.3 hPa | - | - | - | - |
| 1777783521 | 6.67° C | 75% | 1021.2 hPa | - | - | - | - |
| 1777782922 | 6.11° C | 74% | 1021.1 hPa | - | - | - | - |
| 1777782323 | 6.11° C | 74% | 1021.1 hPa | - | - | - | - |
| 1777781722 | 5.56° C | 74% | 1021.1 hPa | - | - | - | - |
| 1777781122 | 5.56° C | 74% | 1021.1 hPa | - | - | - | - |
| 1777780522 | 5.56° C | 74% | 1021 hPa | - | - | - | - |
| 1777779922 | 5.56° C | 74% | 1021 hPa | - | - | - | - |
| 1777779322 | 5.56° C | 74% | 1020.8 hPa | - | - | - | - |
| 1777778122 | 5° C | 76% | 1020.7 hPa | - | - | - | - |
| 1777777522 | 5° C | 74% | 1020.7 hPa | - | - | - | - |
| 1777776922 | 5° C | 74% | 1020.7 hPa | - | - | - | - |
| 1777776321 | 5° C | 75% | 1020.6 hPa | - | - | - | - |
| 1777775722 | 5° C | 75% | 1020.7 hPa | - | - | - | - |
| 1777775122 | 5° C | 75% | 1020.7 hPa | - | - | - | - |
| 1777774521 | 5° C | 76% | 1020.6 hPa | - | - | - | - |
| 1777773921 | 5° C | 76% | 1020.6 hPa | - | - | - | - |
| 1777773321 | 5.56° C | 75% | 1020.6 hPa | - | - | - | - |
* Rain since midnight (hover to see other rain measurements)
** Current wind speed in m/s (hover to see current wind gust speed)